Theta_e
337 337 341 340 340 337 337 332 332 333 332 331 331 332 331 330 329 331 333 354 351 352 355 357 356 356 356 355 354 353 355 356 355 353 351 350 350 351 352 352 350 350 349
338 343 340 340 339 337 336 331 333 334 334 335 333 333 332 332 333 333 332 335 351 350 353 356 358 359 359 358 356 355 354 354 355 354 352 351 350 350 351 351 351 350 349
338 344 341 338 338 338 335 335 335 335 335 333 333 335 336 334 332 332 334 337 342 350 350 353 356 358 358 359 359 358 355 354 354 353 352 351 350 349 350 351 351 351 349
343 343 342 339 339 338 338 336 336 336 334 333 331 333 333 333 335 337 338 339 340 341 348 351 353 355 356 358 359 360 358 354 353 352 351 351 351 350 349 350 350 350 349
337 342 341 343 345 343 341 338 337 337 334 335 336 336 338 339 340 340 339 340 340 342 343 347 351 351 352 355 358 360 358 354 352 351 351 351 351 350 350 349 349 349 349
335 334 331 332 340 340 341 338 336 339 341 343 345 342 343 343 346 345 343 342 342 347 345 344 343 347 349 353 354 356 358 356 354 352 350 349 349 350 349 349 349 348 348
331 334 335 333 336 336 335 331 332 335 333 341 335 333 337 341 342 342 344 341 344 346 345 344 345 348 349 350 349 351 356 357 356 353 349 347 347 349 349 349 349 347 346
333 331 330 330 330 335 338 336 332 333 334 340 334 330 325 326 330 331 331 331 331 335 336 338 340 341 341 346 346 348 353 356 356 352 349 347 347 348 349 348 348 348 345
334 331 329 328 328 332 335 337 332 330 330 336 337 331 322 319 325 328 328 330 328 328 331 331 333 335 339 338 344 347 349 347 350 349 351 348 347 348 348 348 347 347 346
333 331 328 328 326 327 332 334 337 333 335 332 334 338 335 328 323 321 327 328 327 329 327 328 329 331 332 336 341 346 341 342 347 350 350 348 347 346 346 347 347 347 346
330 331 329 328 325 331 336 338 339 338 336 333 332 331 333 334 331 326 325 319 323 325 325 326 328 325 327 327 327 331 335 338 341 343 343 343 346 346 347 347 346 346 348
333 332 331 329 327 329 332 335 337 338 336 336 335 326 322 317 316 317 316 315 315 318 323 321 321 321 323 324 332 332 330 333 334 334 335 337 340 342 344 345 346 346 346
332 332 331 329 332 334 338 333 329 332 334 333 329 327 327 323 320 317 315 312 311 312 315 319 320 321 321 321 324 330 333 330 329 328 328 330 333 335 337 340 342 343 343
337 335 332 336 336 326 330 331 327 332 334 331 329 327 324 322 321 317 314 312 309 308 311 314 320 318 319 320 323 331 322 327 328 325 324 325 327 329 331 333 335 335 337
330 335 339 336 333 330 326 329 335 334 331 330 328 326 326 323 321 318 316 314 310 305 306 309 312 318 317 322 325 325 324 326 326 323 322 322 323 324 326 327 328 329 330
320 320 318 327 322 332 335 333 329 330 329 327 325 323 321 322 320 318 317 315 312 309 308 310 311 315 320 321 322 320 320 324 323 322 322 322 321 321 322 323 324 325 327
319 322 325 330 332 330 331 331 329 329 326 323 323 321 320 321 319 317 316 314 312 310 310 310 311 312 313 313 315 313 320 320 324 324 325 323 320 319 319 320 320 322 324
330 331 332 331 331 330 329 328 328 329 325 322 322 322 321 322 318 318 316 314 314 312 312 311 310 310 311 313 314 311 314 317 316 321 321 321 319 318 317 318 318 318 319
324 322 324 324 325 326 326 328 329 327 325 324 322 320 321 321 319 318 317 318 317 318 316 314 314 311 311 311 310 310 313 308 316 322 318 320 321 320 318 317 316 316 315
315 315 316 319 319 319 321 321 319 317 317 318 320 321 321 320 320 320 319 319 318 317 316 315 314 313 310 311 309 308 306 306 306 315 320 320 319 321 320 318 316 316 313
313 315 315 315 315 315 315 310 311 309 308 309 311 312 312 314 317 315 315 315 314 314 315 313 312 312 309 305 303 304 303 303 304 311 311 313 317 320 321 321 321 319 315
310 310 310 311 310 313 307 307 307 306 305 306 305 307 308 310 310 310 310 310 310 309 310 312 311 310 310 304 304 303 302 301 301 308 308 311 313 314 316 319 320 316 313
306 306 307 307 307 307 304 299 301 302 303 302 302 303 305 309 308 308 307 307 306 306 306 305 305 306 307 309 310 304 303 306 306 307 308 308 311 312 317 320 316 313 311
303 303 304 304 304 306 298 297 298 298 298 299 300 301 301 302 304 304 303 303 303 302 302 305 303 305 307 309 310 311 310 309 309 308 310 306 310 310 316 320 314 313 310
301 301 302 301 300 300 299 297 297 297 297 297 299 300 301 301 299 297 300 300 300 302 305 303 302 301 300 299 305 311 309 306 304 302 306 307 309 309 313 315 317 312 306
299 301 300 300 300 297 297 296 296 297 296 296 298 298 300 299 297 296 297 298 298 300 302 302 302 302 304 306 302 310 310 303 303 301 305 307 308 309 307 313 316 311 308
Wind_Speed
5 5 5 6 6 5 6 5 6 6 7 7 6 9 7 7 7 3 3 13 13 15 16 16 16 17 17 16 16 15 14 14 14 14 15 16 16 16 15 15 15 14 14
5 5 6 6 6 5 6 6 7 7 7 6 7 6 7 6 6 6 4 5 14 15 13 14 15 16 17 17 16 15 13 12 14 14 14 15 15 16 16 16 16 16 15
7 5 5 5 5 6 7 5 5 4 4 4 5 5 5 7 6 7 5 5 5 13 14 14 16 16 16 16 16 15 12 13 13 14 14 14 15 15 16 16 17 17 16
3 7 5 5 5 5 4 4 5 3 4 4 4 6 5 5 7 7 6 5 5 5 10 17 15 17 19 17 15 14 13 13 14 14 14 15 16 16 16 16 17 17 17
6 6 6 5 7 5 4 2 3 2 3 4 5 6 5 5 5 5 5 6 6 5 3 6 15 18 19 16 15 16 16 12 14 15 17 17 17 17 17 17 18 18 18
6 5 4 4 5 5 7 5 14 8 8 5 5 3 4 4 4 4 5 6 6 7 6 7 6 8 16 6 7 19 16 13 14 15 15 15 15 17 18 18 19 20 20
4 4 2 2 2 4 5 3 1 2 9 6 2 5 4 8 6 3 1 2 6 5 5 4 2 4 3 13 14 23 16 19 17 15 14 13 14 15 18 18 21 21 20
9 5 5 1 4 3 7 7 8 5 6 5 2 3 5 8 5 1 1 2 4 4 5 5 4 4 3 4 9 20 17 20 17 13 12 12 13 13 14 16 18 19 18
17 15 16 15 18 13 10 14 14 10 5 4 1 4 2 4 4 1 2 2 4 2 4 6 6 5 6 4 4 6 7 5 5 12 14 10 9 12 12 13 16 16 17
14 14 15 12 9 3 5 5 4 4 7 6 1 4 7 4 4 5 3 1 3 4 6 5 5 4 4 4 7 1 6 7 14 15 6 6 7 10 11 10 13 14 17
9 13 10 8 5 4 1 4 6 5 4 4 5 3 6 7 5 5 8 4 2 3 5 2 2 3 3 3 4 4 7 9 6 8 11 10 11 10 10 10 13 12 13
9 10 7 5 4 5 2 3 11 12 7 8 7 3 4 3 3 3 3 4 4 3 2 3 4 3 3 2 3 4 8 8 8 9 6 6 7 8 11 13 15 15 16
7 10 11 7 5 5 6 9 7 15 13 10 6 5 4 4 3 3 3 3 5 3 2 3 4 3 3 2 3 4 4 2 8 9 9 10 12 12 13 14 16 15 16
9 10 10 11 14 9 9 12 12 17 15 7 8 5 3 3 2 3 4 3 4 3 2 5 3 4 4 5 6 5 4 4 8 10 9 12 14 14 15 14 13 14 14
6 6 5 3 7 7 15 15 10 11 6 6 5 4 4 3 4 4 4 3 4 3 5 4 3 5 4 3 3 2 3 8 8 10 12 14 15 15 16 14 15 15 14
3 7 14 0 19 15 10 8 4 4 3 1 3 6 5 4 6 5 4 3 4 4 6 5 5 3 3 3 4 4 6 9 11 14 13 14 14 14 15 16 16 16 14
1 3 6 13 11 7 5 6 5 2 4 5 4 6 7 7 6 5 4 5 4 4 9 4 4 3 4 5 7 4 5 5 5 13 16 17 16 16 14 16 14 16 15
7 12 9 8 7 6 5 6 7 6 7 8 8 9 11 9 9 8 6 7 7 6 7 15 5 4 6 6 5 4 6 4 5 9 14 12 15 13 11 13 14 14 14
4 2 5 5 6 6 5 5 6 7 7 9 11 11 12 11 12 8 8 9 8 9 9 11 10 5 4 4 4 4 6 4 2 8 11 12 12 14 12 12 12 13 14
7 7 7 6 6 5 4 3 3 4 4 5 6 6 8 9 9 10 11 14 12 11 10 11 11 9 5 6 4 4 3 1 2 4 7 7 10 11 14 14 12 13 14
6 6 7 7 7 7 6 6 7 5 5 6 6 6 6 7 10 8 6 7 6 6 7 8 9 7 5 4 5 5 4 3 4 3 3 7 6 7 9 10 12 13 15
5 5 5 4 4 4 9 11 9 6 5 5 6 6 7 9 10 11 9 7 6 6 9 8 9 11 12 5 4 5 4 3 3 3 2 5 4 9 10 9 13 15 15
6 7 7 6 7 6 9 9 10 5 5 6 6 6 7 9 8 9 12 12 10 8 7 5 8 8 8 7 8 6 5 4 4 4 3 8 6 11 9 10 14 15 15
5 5 5 6 6 6 8 7 9 5 5 6 6 7 8 9 7 6 8 10 9 7 7 8 8 8 9 8 7 9 9 5 2 4 4 7 7 10 8 9 14 17 15
6 5 5 6 6 6 5 6 9 5 5 7 9 11 11 11 12 15 11 13 14 14 11 14 16 17 16 16 16 6 6 5 5 4 4 4 9 10 8 10 9 10 8
6 6 7 6 8 7 8 8 4 6 9 8 9 9 11 11 10 9 6 8 10 10 10 9 7 8 12 11 15 12 10 7 4 2 5 5 8 3 5 5 8 3 3
Wind_Direction
190 187 177 177 199 199 206 211 209 215 228 240 228 220 213 222 238 247 179 203 206 212 214 213 210 215 224 226 231 236 232 234 231 229 224 225 226 225 223 220 227 224 219
209 192 175 192 193 198 210 211 209 210 221 218 238 248 248 239 242 243 245 216 222 221 225 226 226 228 228 231 231 233 230 230 233 234 230 230 229 232 227 226 226 227 224
210 190 193 199 190 201 210 223 234 225 214 215 230 249 246 238 235 243 240 234 223 227 227 229 231 235 241 239 240 237 229 225 229 232 230 229 228 232 233 233 230 230 228
250 187 189 210 221 201 198 203 188 203 191 210 232 247 252 241 232 231 233 234 241 228 223 232 231 230 237 237 244 244 230 225 220 223 227 226 227 227 229 229 234 232 230
42 44 9 21 36 9 339 300 205 173 229 254 264 260 268 249 255 262 243 243 239 242 224 241 233 235 236 233 234 240 240 224 224 217 219 222 223 227 228 226 229 230 230
85 93 70 29 45 43 18 29 355 360 341 337 303 309 268 281 289 276 266 270 269 232 222 236 248 251 249 262 267 268 249 240 223 218 223 221 221 220 225 223 226 229 230
89 99 107 352 73 95 146 180 0 282 292 247 344 351 334 323 282 283 150 288 278 321 348 308 238 220 205 201 219 250 242 243 234 222 221 214 222 224 227 224 225 227 224
168 151 156 141 298 195 188 187 187 196 218 235 171 108 350 316 2 281 85 26 15 343 332 308 328 314 258 211 222 239 243 237 233 234 223 218 224 230 234 233 234 233 230
172 183 175 199 195 190 191 197 194 190 192 234 184 127 72 239 285 268 298 308 349 331 297 293 288 293 309 315 281 251 248 289 269 269 236 223 228 226 233 234 242 238 247
165 188 202 207 217 206 221 223 207 176 182 226 272 176 205 204 207 306 311 297 318 298 299 300 334 339 352 7 350 30 239 249 253 243 241 234 255 263 251 245 245 249 246
196 209 202 204 172 121 235 215 215 224 212 235 232 207 211 227 215 209 275 274 310 279 275 352 327 327 345 355 356 1 6 292 237 203 208 225 236 246 250 258 259 262 258
206 213 229 231 187 157 169 31 345 290 257 235 242 247 224 185 187 164 224 298 293 284 258 277 260 305 320 341 344 6 334 282 226 231 249 289 287 268 261 255 257 260 267
213 216 195 208 214 151 152 150 208 285 272 236 191 205 209 205 168 183 156 240 243 268 286 285 283 253 265 234 252 285 303 181 247 246 242 244 255 255 257 252 253 252 261
214 219 214 200 193 165 198 202 214 203 227 192 194 206 226 250 189 180 202 176 296 278 315 262 291 279 304 276 257 280 314 301 254 255 246 255 256 252 254 252 250 253 255
52 357 263 246 342 206 186 205 231 226 196 165 188 215 223 240 242 242 231 183 177 263 263 260 264 282 292 333 292 336 315 295 286 256 253 250 255 254 255 255 248 248 245
139 103 76 96 216 237 204 177 209 163 147 104 182 208 223 244 250 242 240 240 218 217 271 192 251 245 267 283 271 261 278 285 278 275 279 274 264 261 258 258 249 247 242
341 109 167 212 235 226 174 147 166 150 163 216 241 226 229 227 232 230 225 221 233 224 272 273 221 249 269 272 287 317 282 278 270 271 271 269 262 257 254 259 254 244 243
26 35 348 219 209 170 156 189 194 192 212 211 218 220 231 235 235 230 227 235 240 235 246 272 255 234 232 247 225 274 277 277 265 280 291 289 287 285 269 263 252 243 244
42 75 84 22 10 9 332 296 253 248 238 242 243 230 230 225 236 235 231 239 237 241 243 259 266 222 224 233 269 263 265 271 290 324 312 302 316 303 289 267 251 239 237
26 17 17 13 12 1 339 319 24 32 3 333 319 309 293 273 256 246 245 245 243 244 247 254 261 264 222 238 215 220 256 258 288 324 321 309 309 291 282 271 252 236 236
13 17 8 0 356 352 341 2 354 347 332 313 308 292 280 281 290 269 275 279 267 253 252 259 259 256 237 219 204 211 202 222 240 207 279 303 288 305 299 281 264 237 234
18 20 357 342 331 315 320 323 328 321 316 297 288 289 280 290 291 293 303 280 243 295 283 266 263 259 259 213 209 211 208 198 260 231 209 282 283 286 285 280 260 239 221
1 353 343 344 333 326 324 28 27 7 347 326 305 293 295 295 295 293 290 296 309 289 228 236 270 268 268 260 266 243 215 196 195 243 129 280 285 275 278 279 271 244 226
347 333 323 315 313 330 84 40 16 358 324 305 302 297 291 292 286 296 291 287 275 261 266 274 270 271 264 261 240 240 215 193 202 264 151 257 280 271 284 271 272 260 226
332 330 343 354 342 324 350 334 332 316 295 293 299 294 283 281 280 273 293 290 287 282 268 243 250 259 261 266 255 216 215 209 233 221 197 232 272 276 279 273 275 256 232
335 342 339 332 328 323 303 313 332 304 301 301 299 290 291 292 289 276 274 289 294 288 275 269 268 278 273 256 235 220 212 186 205 261 207 210 270 240 292 255 260 201 165